DW3128 Weather Reports


time (UTC)temp
F
wind
direction
speed
knots
gust
knots
rain 1hr
in
rain 24hr
in
rain mn
in
humidity
%
barometer
mb
20260506195309 62 43 3.5 7.0 0.00 0.05 0.05 70 1013.6
20260506194808 62 14 1.7 2.6 0.00 0.05 0.05 70 1013.5
20260506194308 62 24 2.6 5.2 0.00 0.05 0.05 71 1013.7
20260506193808 62 356 2.6 4.3 0.00 0.05 0.05 72 1013.7
20260506193308 61 2 3.5 6.1 0.00 0.05 0.05 71 1013.8
20260506192808 61 56 5.2 8.7 0.00 0.05 0.05 71 1014.1
20260506192308 61 8 6.1 7.8 0.00 0.05 0.05 71 1014.0
20260506191808 61 71 1.7 7.8 0.00 0.05 0.05 72 1014.0
20260506191309 60 348 3.5 7.8 0.00 0.05 0.05 72 1014.0
20260506190808 60 11 2.6 4.3 0.00 0.05 0.05 74 1014.1
20260506190308 60 320 4.3 6.1 0.00 0.05 0.05 74 1014.3
20260506185808 60 9 1.7 2.6 0.00 0.05 0.05 74 1014.0
20260506185308 60 58 0.9 4.3 0.00 0.05 0.05 74 1014.3
20260506184808 60 336 5.2 8.7 0.00 0.05 0.05 73 1014.5
20260506183807 59 336 1.7 6.1 0.00 0.05 0.05 74 1014.1
20260506183308 59 336 1.7 7.8 0.00 0.05 0.05 75 1014.1
20260506182308 59 347 6.1 14.8 0.00 0.05 0.05 77 1013.5
20260506181809 58 296 7.8 10.4 0.00 0.05 0.05 76 1013.3
20260506181308 58 25 9.6 10.4 0.00 0.05 0.05 76 1013.5
20260506180808 58 356 6.1 11.3 0.00 0.05 0.05 77 1013.5
20260506180308 57 335 5.2 10.4 0.00 0.05 0.05 78 1013.5
20260506175808 56 28 8.7 13.9 0.00 0.05 0.05 78 1013.5
20260506175308 56 349 7.8 17.4 0.00 0.05 0.05 79 1013.5
20260506174808 56 343 8.7 11.3 0.00 0.05 0.05 78 1013.7
20260506174308 56 329 5.2 13.9 0.00 0.05 0.05 79 1013.9
20260506173808 56 326 9.6 8.7 0.00 0.05 0.05 79 1014.0
20260506173308 56 303 6.1 10.4 0.00 0.05 0.05 80 1014.1
20260506171808 55 44 2.6 8.7 0.00 0.05 0.05 83 1013.9
20260506171308 54 343 5.2 11.3 0.00 0.05 0.05 83 1013.9
20260506170808 54 336 4.3 7.8 0.00 0.05 0.05 83 1013.7
20260506170308 54 350 4.3 10.4 0.00 0.05 0.05 84 1013.6
20260506165808 54 333 7.8 10.4 0.00 0.05 0.05 85 1013.6
20260506165308 54 7 6.1 7.0 0.00 0.05 0.05 85 1013.4
20260506164808 53 346 2.6 8.7 0.00 0.05 0.05 85 1013.8
20260506164308 53 5 2.6 8.7 0.00 0.05 0.05 86 1013.7
20260506163808 53 318 4.3 7.0 0.00 0.05 0.05 86 1013.8
20260506163308 53 321 6.1 8.7 0.00 0.05 0.05 86 1013.7
20260506162808 53 334 4.3 8.7 0.00 0.05 0.05 86 1013.9
20260506162308 53 332 3.5 8.7 0.00 0.05 0.05 86 1014.0
20260506161308 53 343 2.6 7.8 0.00 0.05 0.05 87 1013.7
20260506160808 53 345 7.0 11.3 0.00 0.05 0.05 87 1013.6
20260506160308 53 311 5.2 13.0 0.01 0.05 0.05 87 1013.6
20260506155308 53 322 7.0 14.8 0.01 0.05 0.05 88 1013.0
20260506154809 53 350 7.8 10.4 0.02 0.05 0.05 89 1012.9
20260506154307 52 298 8.7 15.6 0.03 0.05 0.05 88 1012.8
20260506153807 52 322 8.7 17.4 0.05 0.05 0.05 88 1012.9
20260506153308 52 322 8.7 11.3 0.05 0.05 0.05 88 1013.2
20260506152808 52 341 4.3 10.4 0.05 0.05 0.05 89 1013.4
20260506152308 52 345 4.3 7.8 0.05 0.05 0.05 89 1013.8
20260506151809 52 354 0.9 5.2 0.05 0.05 0.05 89 1014.0
20260506151308 52 317 6.1 8.7 0.05 0.05 0.05 89 1013.8
20260506150808 52 354 4.3 5.2 0.05 0.05 0.05 89 1013.4
20260506150308 52 328 3.5 5.2 0.04 0.04 0.04 89 1013.7
20260506144808 52 333 4.3 6.1 0.03 0.03 0.03 87 1014.5
20260506144308 52 288 4.3 4.3 0.02 0.02 0.02 87 1015.4
20260506143808 52 6 0.9 1.7 0.00 0.00 0.00 86 1015.3
20260506142308 52 333 4.3 7.0 0.00 0.00 0.00 86 1014.7
20260506141807 52 17 4.3 8.7 0.00 0.00 0.00 86 1013.6
20260506141308 52 342 2.6 7.8 0.00 0.00 0.00 86 1013.0
20260506140808 52 342 3.5 8.7 0.00 0.00 0.00 86 1013.1
20260506140308 52 325 6.1 10.4 0.00 0.00 0.00 86 1013.2
20260506135807 52 329 5.2 6.1 0.00 0.00 0.00 86 1013.6
20260506135308 52 346 6.1 8.7 0.00 0.00 0.00 86 1013.5
20260506134808 52 318 6.1 7.8 0.00 0.00 0.00 86 1014.3
20260506134308 52 299 2.6 7.8 0.00 0.00 0.00 86 1014.1
20260506133808 52 323 5.2 7.8 0.00 0.00 0.00 86 1014.1
20260506133307 52 286 7.0 11.3 0.00 0.00 0.00 86 1013.9
20260506132808 52 303 3.5 7.0 0.00 0.00 0.00 86 1013.6
20260506132307 52 310 3.5 7.8 0.00 0.00 0.00 85 1013.2
20260506131808 52 323 1.7 7.8 0.00 0.00 0.00 85 1012.9
20260506131308 52 322 5.2 10.4 0.00 0.00 0.00 85 1012.9
20260506130809 52 4 7.0 11.3 0.00 0.00 0.00 85 1012.8
20260506130308 52 335 6.1 7.8 0.00 0.00 0.00 84 1012.7
20260506125807 52 10 5.2 7.8 0.00 0.00 0.00 84 1012.6
20260506125308 52 315 6.1 8.7 0.00 0.00 0.00 84 1012.4
20260506124808 52 349 5.2 8.7 0.00 0.00 0.00 84 1012.4
20260506124308 52 316 5.2 10.4 0.00 0.00 0.00 84 1012.1
20260506123807 52 5 6.1 13.9 0.00 0.00 0.00 83 1012.0
20260506123308 52 338 6.1 7.8 0.00 0.00 0.00 83 1012.0
20260506122308 53 309 5.2 8.7 0.00 0.00 0.00 81 1012.1
20260506121808 53 350 5.2 8.7 0.00 0.00 0.00 81 1012.0
20260506121308 53 309 4.3 8.7 0.00 0.00 0.00 81 1011.9
20260506120808 53 348 6.1 7.8 0.00 0.00 0.00 80 1011.9
20260506120308 53 357 6.1 8.7 0.00 0.00 0.00 80 1011.8
20260506115807 54 306 11.3 13.0 0.00 0.00 0.00 80 1011.8
20260506115308 54 23 6.1 7.8 0.00 0.00 0.00 79 1011.6
20260506114808 54 334 6.1 11.3 0.00 0.00 0.00 79 1011.8
20260506114307 54 320 6.1 10.4 0.00 0.00 0.00 79 1011.8
20260506113808 54 280 4.3 10.4 0.00 0.00 0.00 79 1011.6
20260506113308 54 348 8.7 13.0 0.00 0.00 0.00 79 1011.6
20260506112808 55 320 7.8 7.8 0.00 0.00 0.00 78 1011.4
20260506112307 55 320 4.3 7.8 0.00 0.00 0.00 78 1011.2
20260506111808 55 296 9.6 11.3 0.00 0.00 0.00 78 1011.2
20260506111307 55 332 6.1 10.4 0.00 0.00 0.00 78 1011.0
20260506110308 56 311 5.2 7.8 0.00 0.00 0.00 77 1010.8
20260506105808 56 332 1.7 7.8 0.00 0.00 0.00 77 1010.7
20260506105307 56 344 1.7 4.3 0.00 0.00 0.00 77 1010.5
20260506104808 56 303 6.1 10.4 0.00 0.00 0.00 77 1010.6
20260506104307 56 313 6.1 11.3 0.00 0.00 0.00 77 1010.4
20260506103308 57 314 7.8 11.3 0.00 0.00 0.00 77 1010.3
20260506102807 57 303 5.2 10.4 0.00 0.00 0.00 77 1010.3
20260506102308 57 322 5.2 6.1 0.00 0.00 0.00 77 1010.2
20260506101808 57 352 4.3 7.8 0.00 0.00 0.00 77 1010.1
20260506100807 57 341 2.6 6.1 0.00 0.00 0.00 77 1009.9
20260506100308 57 318 3.5 6.1 0.00 0.00 0.00 77 1009.9
20260506095808 57 355 3.5 8.7 0.00 0.00 0.00 77 1009.7
20260506094807 57 305 4.3 5.2 0.00 0.00 0.00 77 1009.5
20260506093808 57 336 1.7 2.6 0.00 0.00 0.00 77 1009.3
20260506093308 57 354 4.3 5.2 0.00 0.00 0.00 77 1009.3
20260506092808 57 324 3.5 10.4 0.00 0.00 0.00 78 1009.3
20260506092308 57 326 5.2 7.8 0.00 0.00 0.00 77 1009.4
20260506091808 57 335 3.5 5.2 0.00 0.00 0.00 77 1009.5
20260506091309 57 1 1.7 4.3 0.00 0.00 0.00 77 1009.3
20260506090807 57 8 2.6 5.2 0.00 0.00 0.00 78 1009.3
20260506090308 58 1 1.7 6.1 0.00 0.00 0.00 78 1009.4
20260506085807 58 320 4.3 6.1 0.00 0.00 0.00 78 1009.3
20260506085307 58 0 2.6 4.3 0.00 0.00 0.00 78 1009.3
20260506084807 58 355 0.9 4.3 0.00 0.00 0.00 79 1009.3
20260506084308 58 312 2.6 6.1 0.00 0.00 0.00 79 1009.2
20260506083808 58 349 4.3 6.1 0.00 0.00 0.00 79 1009.1
20260506083307 58 336 4.3 7.8 0.00 0.00 0.00 79 1009.0
20260506082808 58 1 5.2 7.8 0.00 0.00 0.00 79 1008.9
20260506082308 58 337 4.3 6.1 0.00 0.00 0.00 79 1008.9
20260506081807 58 334 2.6 7.8 0.00 0.00 0.00 79 1008.9
20260506081307 58 358 3.5 6.1 0.00 0.00 0.00 79 1008.8
20260506080808 58 2 3.5 7.8 0.00 0.00 0.00 79 1008.8
20260506073307 58 330 3.5 7.0 0.00 0.00 0.00 81 1008.9
20260506072807 58 343 4.3 6.1 0.00 0.00 0.00 82 1008.9
20260506070807 59 342 0.9 1.7 0.00 0.00 0.00 81 1008.4
20260506070308 59 319 0.9 2.6 0.00 0.00 0.00 81 1008.4
20260506061808 60 5 4.3 8.7 0.00 0.00 0.00 78 1008.2
20260506060808 61 326 4.3 12.2 0.00 0.00 0.00 77 1008.4
20260506060308 61 349 1.7 6.1 0.00 0.00 0.00 78 1008.4
20260506050816 62 357 4.3 11.3 0.00 0.00 0.00 76 1008.4
20260506050307 62 314 6.1 8.7 0.00 0.00 0.00 76 1008.4
20260506044807 62 323 4.3 8.7 0.00 0.00 0.00 76 1008.4
20260506044307 63 10 7.0 11.3 0.00 0.00 0.00 75 1008.3
20260506043807 63 317 4.3 8.7 0.00 0.00 0.00 75 1008.3
20260506043308 63 3 1.7 8.7 0.00 0.00 0.00 75 1008.1
20260506042307 63 340 7.0 13.0 0.00 0.00 0.00 75 1008.2
20260506041807 63 316 7.0 8.7 0.00 0.00 0.00 74 1008.2
20260506041308 64 315 3.5 6.1 0.00 0.00 0.00 74 1008.3
20260506035307 64 335 7.0 10.4 0.00 0.00 0.00 74 1008.3
20260506034307 64 25 5.2 10.4 0.00 0.00 0.00 74 1008.1
20260506033807 65 315 6.1 11.3 0.00 0.00 0.00 74 1008.1
20260506033307 65 330 6.1 7.8 0.00 0.00 0.00 74 1007.8
20260506032807 65 352 4.3 11.3 0.00 0.00 0.00 74 1007.5
20260506032307 65 326 5.2 13.9 0.00 0.00 0.00 74 1007.4
20260506031807 66 318 6.1 10.4 0.00 0.00 0.00 73 1007.4
20260506031307 66 327 4.3 7.8 0.00 0.00 0.00 74 1007.3
20260506030808 66 310 2.6 6.1 0.00 0.00 0.00 75 1007.3
20260506030308 66 338 2.6 6.1 0.00 0.00 0.00 74 1007.2
20260506025808 66 346 6.1 8.7 0.00 0.00 0.00 74 1006.9
20260506025307 66 316 2.6 7.8 0.00 0.00 0.00 74 1006.8
20260506024807 66 328 2.6 4.3 0.00 0.00 0.00 73 1006.7
20260506024307 66 332 2.6 5.2 0.00 0.00 0.00 73 1006.6
20260506023807 66 346 3.5 6.1 0.00 0.00 0.00 72 1006.3
20260506023307 66 355 4.3 6.1 0.00 0.00 0.00 72 1006.2
20260506022808 67 339 3.5 5.2 0.00 0.00 0.00 72 1006.4
20260506022307 67 336 1.7 5.2 0.00 0.00 0.00 71 1006.2
20260506021807 67 323 4.3 7.0 0.00 0.00 0.00 71 1006.1
20260506021307 67 346 6.1 7.8 0.00 0.00 0.00 70 1006.2
20260506020807 67 337 7.8 11.3 0.00 0.00 0.00 70 1006.1
20260506020307 68 315 8.7 13.0 0.00 0.00 0.00 70 1006.2
20260506015807 68 356 5.2 8.7 0.00 0.00 0.00 70 1006.0
20260506015307 69 312 6.1 7.8 0.00 0.00 0.00 70 1006.1
20260506014807 69 318 5.2 8.7 0.00 0.00 0.00 71 1005.8
20260506013808 69 328 3.5 4.3 0.00 0.00 0.00 71 1005.5
20260506013307 70 314 5.2 8.7 0.00 0.00 0.00 70 1005.3
20260506012808 70 314 4.3 7.8 0.00 0.00 0.00 70 1005.2
20260506012308 70 337 4.3 7.8 0.00 0.00 0.00 69 1005.0
20260506011807 71 331 6.1 7.8 0.00 0.00 0.00 69 1004.9
20260506011308 71 346 5.2 7.8 0.00 0.00 0.00 69 1004.6
20260506010807 71 319 1.7 6.1 0.00 0.00 0.00 68 1004.4
20260506010307 71 337 4.3 6.1 0.00 0.00 0.00 67 1004.4
20260506005807 72 344 5.2 7.8 0.00 0.00 0.00 67 1004.1
20260506005307 72 15 4.3 7.0 0.00 0.00 0.00 67 1004.3
20260506004807 72 341 3.5 6.1 0.00 0.00 0.00 67 1004.5
20260506004307 72 338 1.7 5.2 0.00 0.00 0.00 67 1004.3
20260506003807 73 348 3.5 7.8 0.00 0.00 0.00 66 1004.2
20260506003307 73 18 6.1 8.7 0.00 0.00 0.00 66 1004.0
20260506002807 73 312 4.3 7.8 0.00 0.00 0.00 66 1003.8
20260506002308 74 317 3.5 8.7 0.00 0.00 0.00 66 1003.8
20260506001808 74 321 4.3 7.8 0.00 0.00 0.00 65 1003.5
20260506001307 74 308 7.0 10.4 0.00 0.00 0.00 64 1003.8
20260506000807 75 28 4.3 8.7 0.00 0.00 0.00 64 1003.7
20260506000309 75 323 3.5 7.0 0.00 0.00 0.00 64 1003.5
20260505235807 75 356 7.8 13.0 0.00 0.00 0.00 64 1003.5
20260505234307 76 338 9.6 13.9 0.00 0.00 0.00 63 1003.5
20260505233307 77 315 9.6 13.0 0.00 0.00 0.00 62 1003.4
20260505232807 78 333 6.1 13.0 0.00 0.00 0.00 61 1003.4
20260505232307 79 308 10.4 13.9 0.00 0.00 0.00 59 1003.3
20260505231307 80 318 9.6 11.3 0.00 0.00 0.00 58 1003.2
20260505230808 80 2 6.1 13.0 0.00 0.00 0.00 60 1003.2
20260505230307 80 331 6.1 10.4 0.00 0.00 0.00 59 1003.1
20260505225807 81 2 5.2 13.9 0.00 0.00 0.00 58 1002.9
20260505225307 82 349 12.2 14.8 0.00 0.00 0.00 57 1003.1
20260505224807 83 11 5.2 8.7 0.00 0.00 0.00 58 1003.1
20260505224307 83 312 7.0 10.4 0.00 0.00 0.00 57 1002.8
20260505223807 84 346 6.1 13.0 0.00 0.00 0.00 57 1002.7
20260505223307 85 311 7.8 10.4 0.00 0.00 0.00 56 1002.6
20260505222307 85 341 5.2 8.7 0.00 0.00 0.00 54 1002.5
20260505221308 86 353 5.2 7.8 0.00 0.00 0.00 50 1002.4
20260505220807 86 318 4.3 11.3 0.00 0.00 0.00 50 1002.4
20260505220307 87 330 6.1 8.7 0.00 0.00 0.00 48 1002.3
20260505215808 88 316 9.6 13.0 0.00 0.00 0.00 47 1002.3
20260505214807 88 18 5.2 8.7 0.00 0.00 0.00 48 1002.1
20260505214307 89 326 7.0 10.4 0.00 0.00 0.00 47 1002.1
20260505213807 90 355 6.1 11.3 0.00 0.00 0.00 47 1002.2
20260505211807 91 202 6.1 6.1 0.00 0.00 0.00 48 1002.2
20260505211307 91 266 3.5 5.2 0.00 0.00 0.00 49 1002.4
20260505205307 90 207 6.1 7.0 0.00 0.00 0.00 48 1002.6
20260505204807 90 196 5.2 7.0 0.00 0.00 0.00 50 1002.7
20260505202807 90 198 6.1 7.8 0.00 0.00 0.00 53 1002.8
20260505202307 89 206 4.3 7.0 0.00 0.00 0.00 51 1002.7
20260505201307 89 221 5.2 7.8 0.00 0.00 0.00 51 1002.9
20260505200806 89 267 5.2 6.1 0.00 0.00 0.00 52 1002.9
20260505200307 89 246 6.1 7.8 0.00 0.00 0.00 51 1003.1
20260505195807 88 275 6.1 7.8 0.00 0.00 0.00 53 1003.1